Upington, South Africa

9:59 AM SAST on May 28, 2017 (GMT +0200)
Upington

Weather History for FAUP - August, 2013

Change the Weather History Date:

Saturday, August 31, 2013

  Actual Average Record
Temperature  
Mean Temperature 44 °F -  
Max Temperature 55 °F 78 °F 93 °F (2003)
Min Temperature 33 °F 48 °F 32 °F (2002)
Degree Days  
Heating Degree Days 21    
Moisture  
Dew Point 26 °F    
Average Humidity 53    
Maximum Humidity 100    
Minimum Humidity 14    
Precipitation  
Precipitation 0.00 in 0.01 in - ()
Sea Level Pressure  
Sea Level Pressure 30.17 in    
Wind  
Wind Speed 6 mph ()    
Max Wind Speed 9 mph    
Max Gust Speed 18 mph    
Visibility 6.2 miles    
Events      
Averages and records for this station are not official NWS values.
T = Trace of Precipitation, MM = Missing Value Source: Averaged Metar Reports

Daily Weather History Graph

Daily Weather History Graph

Search for Another Location

Airport or City:

Trip Planner

Search our weather history database for the weather conditions in past years. The results will help you decide how hot, cold, wet, or windy it might be!

Date:

Astronomy

Aug. 31, 2013 Rise Set
Actual Time 6:50 AM SAST 6:20 PM SAST
Civil Twilight 6:26 AM SAST 6:44 PM SAST
Nautical Twilight 5:59 AM SAST 7:11 PM SAST
Astronomical Twilight 5:31 AM SAST 7:39 PM SAST
Moon 3:08 AM SAST (8/31) 2:04 PM SAST (8/31)
Length of Visible Light 12h 17m
Length of Day
11h 30m
Waning Crescent, 23% of the Moon is Illuminated
Aug 31
Waning Crescent
Sep 5
New
Sep 12
First Quarter
Sep 19
Full
Sep 27
Last Quarter

Hourly Weather History & Observations

Time (SAST) Temp. Windchill Dew Point Humidity Pressure Visibility Wind Dir Wind Speed Gust Speed Precip Events Conditions
12:00 AM 39.2 °F 33.6 °F 28.4 °F 65% 30.15 in - SW 8.1 mph - N/A   Unknown
1:00 AM 35.6 °F 29.9 °F 28.4 °F 75% 30.12 in - SW 6.9 mph - N/A   Clear
2:00 AM 38 °F - 31 °F 66%  in 25 mi SSW 6.9 mph - -  
2:00 AM 37.4 °F 32.1 °F 32.0 °F 81% 30.12 in - SSW 6.9 mph - N/A   Clear
3:00 AM 35.6 °F 30.7 °F 32.0 °F 87% 30.12 in - SSW 5.8 mph - N/A   Clear
4:00 AM 32.0 °F 27.5 °F 32.0 °F 100% 30.12 in 6.2 mi SSW 4.6 mph - N/A   Scattered Clouds
4:11 AM 37.4 °F 32.8 °F 32.0 °F 81% 30.12 in 6.2 mi SSW 5.8 mph - N/A   Scattered Clouds
5:00 AM 38 °F - 32 °F 71%  in 25 mi SW 4.6 mph - -   Mostly Cloudy
5:00 AM 37.4 °F 34.9 °F 32.0 °F 81% 30.12 in 6.2 mi SW 3.5 mph - N/A   Mostly Cloudy
6:00 AM 37.4 °F 31.4 °F 32.0 °F 81% 30.15 in 6.2 mi SSW 8.1 mph - N/A   Mostly Cloudy
7:00 AM 35.6 °F 29.2 °F 30.2 °F 81% 30.18 in 6.2 mi South 8.1 mph - N/A   Mostly Cloudy
7:41 AM 37.4 °F 32.8 °F 30.2 °F 75% 30.21 in 6.2 mi SSW 5.8 mph - N/A   Partly Cloudy
8:00 AM 39 °F - 30 °F 59%  in 25 mi South 5.8 mph - -   Scattered Clouds
8:00 AM 37.4 °F 33.8 °F 30.2 °F 75% 30.21 in 6.2 mi South 4.6 mph - N/A   Partly Cloudy
9:00 AM 41.0 °F 38.0 °F 30.2 °F 65% 30.24 in 6.2 mi South 4.6 mph - N/A   Partly Cloudy
10:00 AM 42.8 °F 39.3 °F 28.4 °F 57% 30.24 in 6.2 mi SSE 5.8 mph - N/A   Partly Cloudy
11:00 AM 47 °F - 26 °F 31%  in 25 mi South 4.6 mph - -   Scattered Clouds
11:00 AM 46.4 °F 44.3 °F 26.6 °F 46% 30.24 in 6.2 mi South 4.6 mph - N/A   Partly Cloudy
12:00 PM 48.2 °F - 24.8 °F 40% 30.24 in 6.2 mi WSW 8.1 mph - N/A   Partly Cloudy
1:00 PM 50.0 °F - 17.6 °F 28% 30.21 in 6.2 mi South 5.8 mph - N/A   Partly Cloudy
2:00 PM 52 °F - 17 °F 14%  in 25 mi SW 6.9 mph - -   Scattered Clouds
2:00 PM 50.0 °F - 17.6 °F 28% 30.18 in 6.2 mi SW 5.8 mph 18.4 mph N/A   Partly Cloudy
3:00 PM 51.8 °F - 17.6 °F 26% 30.15 in 6.2 mi SSW 8.1 mph - N/A   Partly Cloudy
4:00 PM 53.6 °F - 21.2 °F 28% 30.15 in 6.2 mi SW 9.2 mph - N/A   Partly Cloudy
5:00 PM 53 °F - 21 °F 17%  in 25 mi SW 8.1 mph - -   Scattered Clouds
5:00 PM 51.8 °F - 23.0 °F 33% 30.15 in 6.2 mi SW 8.1 mph - N/A   Partly Cloudy
6:00 PM 51.8 °F - 21.2 °F 30% 30.15 in 6.2 mi SW 3.5 mph - N/A   Partly Cloudy
7:00 PM 46.4 °F 44.3 °F 21.2 °F 37% 30.15 in 6.2 mi WSW 4.6 mph - N/A   Partly Cloudy
8:00 PM 45 °F - 21 °F 25%  in 25 mi West 4.6 mph - -   Scattered Clouds
8:00 PM 44.6 °F 42.2 °F 21.2 °F 39% 30.18 in 6.2 mi West 4.6 mph - N/A   Partly Cloudy
9:00 PM 41.0 °F 39.0 °F 19.4 °F 42% 30.18 in - West 3.5 mph - N/A   Unknown
10:00 PM 39.2 °F 35.9 °F 21.2 °F 49% 30.18 in - WNW 4.6 mph - N/A   Unknown
11:00 PM 38 °F - 20 °F 35%  in - NW 5.8 mph - -  
11:00 PM 37.4 °F 33.8 °F 21.2 °F 52% 30.21 in - NW 4.6 mph - N/A   Unknown